CVBQ Weather Reports


time (UTC)temp
C
wind
direction
speed
KPH
gust
KPH
rain 1hr
cm
rain 24hr
cm
rain mn
cm
humidity
%
barometer
mb
20260504184607 13 218 3.2 12.9 0.00 0.00 0.00 70 1020.8
20260504183058 13 237 0.0 9.7 0.00 0.00 0.00 72 1020.7
20260504181558 13 250 4.8 11.3 0.00 0.00 0.00 69 1020.7
20260504180057 13 248 4.8 14.5 0.00 0.00 0.00 66 1020.8
20260504174607 15 245 6.4 20.9 0.00 0.00 0.00 60 1020.8
20260504173058 15 238 3.2 14.5 0.00 0.00 0.00 65 1020.7
20260504171555 15 225 6.4 14.5 0.00 0.00 0.00 65 1020.6
20260504081506 12 181 0.0 3.2 0.00 0.53 0.00 93 1020.5
20260504044558 9 241 0.0 0.0 0.00 0.53 0.00 97 1019.2
20260504043046 9 241 0.0 0.0 0.00 0.53 0.00 97 1019.2
20260504041544 9 241 0.0 0.0 0.00 0.53 0.00 97 1019.2
20260504040044 8 241 0.0 0.0 0.00 0.53 0.00 97 1019.3
20260504034551 8 241 0.0 0.0 0.00 0.53 0.00 97 1019.2
20260504033052 9 241 0.0 0.0 0.00 0.53 0.00 97 1019.3
20260504031542 8 241 0.0 0.0 0.00 0.53 0.00 97 1019.4
20260504030041 9 241 0.0 0.0 0.00 0.53 0.00 96 1019.4
20260504024545 9 241 0.0 1.6 0.00 0.53 0.00 97 1019.3
20260504023040 8 241 0.0 0.0 0.00 0.53 0.00 96 1019.4
20260504021541 8 241 0.0 0.0 0.00 0.53 0.00 97 1019.3
20260504020037 8 241 0.0 0.0 0.00 0.53 0.00 96 1019.4
20260504014539 8 241 0.0 0.0 0.00 0.53 0.00 96 1019.5
20260504013038 8 241 0.0 0.0 0.00 0.53 0.00 96 1019.5
20260504011533 8 246 0.0 0.0 0.00 0.53 0.00 95 1019.6
20260504010046 9 246 0.0 0.0 0.00 0.56 0.00 96 1019.7
20260504004531 9 246 0.0 0.0 0.00 0.56 0.00 95 1019.7
20260504003028 9 246 0.0 0.0 0.00 0.56 0.00 95 1019.7
20260504001528 9 246 0.0 0.0 0.00 0.56 0.00 95 1019.8
20260504000028 10 246 0.0 1.6 0.00 0.56 0.00 94 1019.8
20260503234527 10 246 0.0 0.0 0.00 0.56 0.00 95 1019.8
20260503233025 10 246 0.0 0.0 0.00 0.56 0.00 94 1019.8
20260503231525 10 250 0.0 1.6 0.00 0.56 0.00 95 1019.9
20260503230021 9 242 0.0 3.2 0.00 0.56 0.56 95 1019.9
20260503224519 8 240 0.0 1.6 0.00 0.56 0.56 94 1019.9
20260503223018 9 239 0.0 0.0 0.00 0.56 0.56 94 1020.0
20260503221528 8 236 0.0 1.6 0.00 0.56 0.56 93 1019.9
20260503220018 9 230 0.0 0.0 0.00 0.56 0.56 91 1019.9
20260503214514 10 230 0.0 0.0 0.00 0.56 0.56 89 1019.9
20260503213026 10 230 0.0 0.0 0.00 0.56 0.56 88 1019.9
20260503211518 11 230 0.0 0.0 0.00 0.56 0.56 88 1019.7
20260503210012 11 227 0.0 1.6 0.00 0.56 0.56 87 1019.6
20260503204511 11 244 0.0 3.2 0.00 0.56 0.56 85 1019.4
20260503203011 11 232 0.0 4.8 0.00 0.56 0.56 84 1019.2
20260503201524 11 258 0.0 3.2 0.00 0.56 0.56 84 1019.1
20260503200011 12 253 0.0 1.6 0.00 0.56 0.56 84 1018.8
20260503194508 12 259 0.0 4.8 0.00 0.56 0.56 82 1018.6
20260503193008 12 244 0.0 3.2 0.00 0.56 0.56 80 1018.5
20260503191507 13 245 3.2 8.0 0.00 0.56 0.56 78 1018.2
20260503190017 13 255 3.2 8.0 0.00 0.56 0.56 77 1018.2